ABS-6

Last updated on Jan. 29, 2020, 4:37 a.m. UTC

1 25924U 99053A   20028.74647609 -.00000121  00000-0  00000+0 0  9997
2 25924   0.0646 290.2498 0002164 352.6547 272.3380  1.00270129 74490
UTC
Height (km)
Latitude
Longitude
Inclination
Orbital Period
UTC large
Height (km)
Speed (km/s)
/
Latitude / Longitude
Inclination (degrees)
Orbital Period (minutes)
Azimuth
Elevation
Range (km)
Doppler Factor
iOS Compass Heading
iOS Angle

Next 30 passes for location: Hong Kong

Rise time Rise Azimuth (degrees) Set time Set Azimuth (degrees) Duration Max altitude (degrees)

No matching passes for this satellites